Skip Page Navigation
NASA JPL Caltech
NASA Logo - Jet Propulsion Laboratory + View the NASA Portal
+ Center for Near-Earth Object Studies
JPL Home Earth Solar System Stars & Galaxies Technology
JPL Solar System Dynamics
BODIES ORBITS EPHEMERIDES TOOLS PHYSICAL DATA DISCOVERY FAQ SITE MAP
JPL Small-Body Database Browser
Search: [ help ]  
71274 (2000 AC37)
Classification: Main-belt Asteroid          SPK-ID: 2071274
Ephemeris | Orbit Diagram | Orbital Elements | Mission Design | Physical Parameters | Discovery Circumstances | Close-Approach Data ]

[ show orbit diagram ]
Orbital Elements at Epoch 2459000.5 (2020-May-31.0) TDB
Reference: JPL 26 (heliocentric ecliptic J2000)
 Element Value Uncertainty (1-sigma)   Units 
e .06706534765136424 3.8893e-08  
a 3.062388709310909 1.9644e-08 au
q 2.85700854587736 1.1619e-07 au
i 8.917652831153466 4.717e-06 deg
node 311.1989306009079 2.9622e-05 deg
peri 345.3630114310349 4.8685e-05 deg
M 98.94114755113728 3.8484e-05 deg
tp 2458462.523454832604
(2018-Dec-10.02345483)
0.00020937 TDB
period 1957.441984995821
5.36
1.8835e-05
5.157e-08
d
yr
n .1839134966754933 1.7696e-09 deg/d
Q 3.267768872744458 2.0962e-08 au
  Orbit Determination Parameters
   # obs. used (total)      1203  
   data-arc span      7758 days (21.24 yr)  
   first obs. used      1998-10-29  
   last obs. used      2020-01-25  
   planetary ephem.      DE431  
   SB-pert. ephem.      SB431-N16  
   condition code      0  
   norm. resid. RMS      .53484  
   source      ORB  
   producer      Otto Matic  
   solution date      2020-Feb-23 16:23:22  

Additional Information
 Earth MOID = 1.8423 au 
 Jupiter MOID = 1.94521 au 
 T_jup = 3.211 
[ show covariance matrix ]

Ephemeris | Orbit Diagram | Orbital Elements | Mission Design | Physical Parameters | Discovery Circumstances | Close-Approach Data ]

Physical Parameter Table
Parameter Symbol Value Units Sigma Reference Notes
absolute magnitude H 13.7   n/a MPO493364  
diameter diameter 6.879 km 0.580 urn:nasa:pds:neowise_diameters_albedos::2.0[mainbelt] (http://adsabs.harvard.edu/abs/2011ApJ...741...68M)  
geometric albedo albedo 0.163   0.053 urn:nasa:pds:neowise_diameters_albedos::2.0[mainbelt] (http://adsabs.harvard.edu/abs/2011ApJ...741...68M)  

71274 (2000 AC37)          Discovered 2000-Jan-03 by LINEAR at Socorro
Reference: 20031109/Numbers.arcLast Updated: 2004-04-19

[ show close-approach data ]
Ephemeris | Orbit Diagram | Orbital Elements | Mission Design | Physical Parameters | Discovery Circumstances | Close-Approach Data ]
ABOUT SSD CREDITS/AWARDS PRIVACY/COPYRIGHT GLOSSARY LINKS
FirstGov 2020-Jul-04 22:15 UT
(server date/time)  
NASA Home Page
Site Manager:   Ryan S. Park
Webmaster  Alan B. Chamberlin